Weather History for KCBM - April, 2013

Change the Weather History Date:

Tuesday, April 23, 2013

  Actual Average Record
Temperature  
Mean Temperature 64 °F -  
Max Temperature 76 °F 73 °F 87 °F (2009)
Min Temperature 53 °F 52 °F 44 °F (1998)
Growing Degree Days 14 (Base 50)    
Moisture  
Dew Point 57 °F    
Average Humidity 73    
Maximum Humidity 100    
Minimum Humidity 51    
Precipitation  
Precipitation 0.00 in - - ()
Sea Level Pressure  
Sea Level Pressure 30.08 in    
Wind  
Wind Speed 6 mph (South)    
Max Wind Speed 15 mph    
Max Gust Speed -    
Visibility 10 miles    
Events      
Averages and records for this station are not official NWS values.
T = Trace of Precipitation, MM = Missing Value Source: NWS Daily Summary

Daily Weather History Graph

Daily Weather History Graph

Search for Another Location

Airport or City:

Trip Planner

Search our weather history database for the weather conditions in past years. The results will help you decide how hot, cold, wet, or windy it might be!

Date:

Astronomy

Apr. 23, 2013 Rise Set
Actual Time 6:13 AM CDT 7:31 PM CDT
Civil Twilight 5:47 AM CDT 7:57 PM CDT
Nautical Twilight 5:16 AM CDT 8:28 PM CDT
Astronomical Twilight 4:44 AM CDT 9:00 PM CDT
Moon 5:30 PM CDT (4/23) 4:34 AM CDT (4/23)
Length of Visible Light 14h 09m
Length of Day
13h 17m
Waxing Gibbous, 94% of the Moon is Illuminated
Apr 23
Waxing Gibbous
Apr 25
Full
May 2
Last Quarter
May 9
New
May 17
First Quarter

Hourly Weather History & Observations

Time (CDT) Temp. Dew Point Humidity Pressure Visibility Wind Dir Wind Speed Gust Speed Precip Events Conditions
12:58 AM 56.3 °F 54.1 °F 92% 30.10 in 10.0 mi Calm Calm - N/A   Clear
1:58 AM 54.9 °F 53.4 °F 95% 30.10 in 10.0 mi SSE 3.5 mph - N/A   Clear
2:58 AM 54.7 °F 53.6 °F 96% 30.09 in 10.0 mi SSE 5.8 mph - N/A   Clear
3:58 AM 54.7 °F 53.8 °F 97% 30.10 in 10.0 mi SSE 5.8 mph - N/A   Clear
4:58 AM 54.1 °F 53.2 °F 97% 30.10 in 10.0 mi SSE 4.6 mph - N/A   Clear
5:35 AM 53.6 °F 53.6 °F 100% 30.09 in 10.0 mi SSE 4.6 mph - N/A   Partly Cloudy
5:58 AM 54.5 °F 54.3 °F 99% 30.10 in 10.0 mi SSE 2.3 mph - N/A   Mostly Cloudy
6:58 AM 53.6 °F 53.6 °F 100% 30.12 in 8.0 mi Calm Calm - N/A   Clear
7:58 AM 59.4 °F 56.7 °F 91% 30.12 in 10.0 mi SSE 8.1 mph - N/A   Clear
8:58 AM 64.4 °F 56.8 °F 76% 30.13 in 10.0 mi South 6.9 mph - N/A   Clear
9:40 AM 66.2 °F 57.2 °F 73% 30.13 in 10.0 mi South 15.0 mph - N/A   Mostly Cloudy
9:43 AM 66.2 °F 57.2 °F 73% 30.12 in 10.0 mi South 13.8 mph - N/A   Mostly Cloudy
9:58 AM 67.1 °F 57.0 °F 70% 30.13 in 10.0 mi South 12.7 mph - N/A   Mostly Cloudy
10:03 AM 66.2 °F 57.2 °F 73% 30.13 in 10.0 mi SSE 12.7 mph - N/A   Overcast
10:58 AM 68.9 °F 57.9 °F 68% 30.14 in 10.0 mi SSW 9.2 mph - N/A   Mostly Cloudy
11:03 AM 69.8 °F 57.2 °F 64% 30.13 in 10.0 mi South 9.2 mph - N/A   Mostly Cloudy
11:43 AM 71.6 °F 59.0 °F 64% 30.12 in 10.0 mi South 11.5 mph - N/A   Mostly Cloudy
11:48 AM 69.8 °F 59.0 °F 68% 30.12 in 10.0 mi South 10.4 mph - N/A   Mostly Cloudy
11:58 AM 70.3 °F 58.5 °F 66% 30.13 in 10.0 mi South 9.2 mph - N/A   Mostly Cloudy
12:13 PM 71.6 °F 59.0 °F 64% 30.11 in 10.0 mi South 11.5 mph - N/A   Mostly Cloudy
12:48 PM 71.6 °F 59.0 °F 64% 30.10 in 10.0 mi South 10.4 mph - N/A   Overcast
12:53 PM 71.6 °F 59.0 °F 64% 30.10 in 10.0 mi SSW 8.1 mph - N/A   Mostly Cloudy
12:58 PM 72.3 °F 58.3 °F 61% 30.11 in 10.0 mi South 10.4 mph - N/A   Mostly Cloudy
1:13 PM 71.6 °F 57.2 °F 60% 30.09 in 10.0 mi South 9.2 mph - N/A   Mostly Cloudy
1:18 PM 73.4 °F 59.0 °F 61% 30.08 in 10.0 mi South 11.5 mph - N/A   Mostly Cloudy
1:58 PM 73.6 °F 58.6 °F 59% 30.09 in 10.0 mi South 8.1 mph - N/A   Mostly Cloudy
2:03 PM 75.2 °F 59.0 °F 57% 30.08 in 10.0 mi South 10.4 mph - N/A   Scattered Clouds
2:58 PM 75.4 °F 56.1 °F 51% 30.06 in 10.0 mi SSW 12.7 mph - N/A   Partly Cloudy
3:58 PM 75.9 °F 58.1 °F 54% 30.04 in 10.0 mi South 5.8 mph - N/A   Partly Cloudy
4:58 PM 76.5 °F 57.2 °F 51% 30.02 in 10.0 mi South 6.9 mph - N/A   Scattered Clouds
5:58 PM 74.7 °F 58.1 °F 56% 30.01 in 10.0 mi South 6.9 mph - N/A   Mostly Cloudy
6:58 PM 72.7 °F 59.0 °F 62% 30.00 in 10.0 mi South 6.9 mph - N/A   Clear
7:58 PM 67.5 °F 59.9 °F 77% 30.00 in 10.0 mi SE 3.5 mph - N/A   Mostly Cloudy
8:30 PM 68.0 °F 59.0 °F 73% 30.00 in 10.0 mi SE 4.6 mph - N/A   Light Drizzle
8:35 PM 68.0 °F 59.0 °F 73% 30.00 in 10.0 mi SE 4.6 mph - N/A   Overcast
8:58 PM 67.8 °F 59.2 °F 74% 30.01 in 10.0 mi SSE 6.9 mph - 0.00 in   Overcast
9:58 PM 66.9 °F 58.5 °F 74% 30.03 in 10.0 mi SSE 9.2 mph - N/A   Partly Cloudy
10:58 PM 66.6 °F 57.6 °F 73% 30.03 in 10.0 mi SSE 8.1 mph - N/A   Clear
11:58 PM 66.7 °F 57.4 °F 72% 30.03 in 10.0 mi South 9.2 mph - N/A   Clear